Temperature
15 16 16 17 14 12 14 15 16 17 17 18 18 18 16 16 17 17 15 15 16 16 16 16 16 16 16 16 16 16 16 16 15 15 15 15 15 15 15 15 15 15 15 15 15 15 15 15 15
15 15 16 16 12 13 14 15 16 17 18 18 18 17 16 15 15 15 15 15 15 15 15 15 16 16 16 16 16 16 16 16 16 15 15 15 15 15 15 15 15 15 15 15 15 15 15 15 15
15 15 15 12 12 13 15 15 15 17 18 18 17 16 15 15 15 15 15 15 15 15 15 15 16 16 16 16 16 16 16 16 15 15 15 15 15 15 15 15 15 15 15 15 15 15 15 15 14
15 15 14 11 13 13 15 15 15 16 17 17 16 14 14 15 15 15 15 15 15 15 15 15 15 16 16 16 16 16 16 16 15 15 15 15 15 15 15 15 15 15 15 14 14 14 14 14 14
14 14 11 11 13 13 14 15 16 15 16 16 15 13 14 14 15 15 15 15 15 15 15 15 15 15 16 16 16 16 15 15 15 15 15 15 15 14 14 14 14 14 14 14 14 14 14 14 14
13 12 11 11 12 13 14 15 15 15 15 15 15 13 13 14 14 14 14 14 15 15 15 15 15 15 15 15 15 15 15 15 15 15 15 15 14 14 14 14 14 14 14 14 14 14 14 14 13
12 10 11 12 12 13 14 15 15 14 14 15 15 13 13 13 14 14 14 14 14 14 14 14 15 15 15 15 15 15 15 15 15 15 14 14 14 14 14 14 14 14 14 14 14 14 14 13 13
12 10 11 11 12 13 14 15 15 15 15 15 15 13 13 13 13 14 14 14 14 14 14 14 14 15 15 15 14 14 15 14 14 14 14 14 14 14 14 14 14 14 14 14 14 14 13 13 13
12 9 10 11 12 13 14 14 14 15 15 14 14 15 14 14 13 13 13 13 13 14 14 14 14 14 14 14 14 14 14 14 14 14 14 14 14 14 14 14 14 13 13 13 13 13 13 13 13
11 9 10 12 12 12 13 13 14 14 13 13 13 14 14 13 13 13 13 13 13 13 13 14 14 14 14 14 14 14 14 14 14 14 14 14 14 14 14 13 13 13 13 13 13 13 13 13 12
11 9 11 12 13 13 13 13 13 13 12 13 13 13 13 13 13 13 13 13 13 13 13 13 13 13 13 14 14 14 14 14 14 13 13 13 13 13 13 13 13 13 13 13 13 12 12 12 12
10 10 12 12 13 13 13 13 13 13 13 14 14 14 13 13 13 13 13 13 13 13 13 13 13 13 13 13 13 13 13 13 13 13 13 13 13 13 13 13 13 13 12 12 12 12 12 12 12
10 10 12 12 12 12 13 12 12 13 14 14 14 13 13 13 13 13 13 13 13 13 13 13 13 13 13 13 13 13 13 13 13 13 13 13 13 13 13 12 12 12 12 12 12 12 12 12 11
11 11 11 12 12 12 12 12 12 12 13 13 13 13 13 13 13 12 12 12 12 13 13 13 12 12 12 13 13 13 13 13 13 13 13 12 12 12 12 12 12 12 12 12 12 11 11 11 11
11 10 10 11 11 12 12 11 11 13 12 12 12 13 12 12 12 12 12 12 13 13 13 13 12 12 12 12 12 12 12 12 12 12 12 12 12 12 12 12 12 12 12 11 11 11 11 11 11
9 9 9 10 11 11 11 10 11 12 12 12 12 12 12 12 12 12 12 12 12 12 12 12 12 12 12 12 12 12 12 12 12 12 12 12 12 12 12 12 12 11 11 11 11 11 10 10 10
8 8 9 10 11 11 10 10 11 12 11 11 11 12 12 12 12 12 12 12 12 12 12 12 12 12 12 12 12 12 12 12 11 11 11 11 11 11 11 11 11 11 11 11 11 10 10 10 10
8 8 9 9 10 10 10 10 10 11 11 11 11 11 11 12 12 12 11 11 11 11 12 12 12 12 11 11 11 11 11 11 11 11 11 11 11 11 11 11 11 11 11 10 10 10 10 10 10
9 9 9 9 10 10 9 9 10 11 10 10 11 11 11 11 11 11 11 11 11 11 11 11 11 11 11 11 11 11 11 11 11 11 11 11 11 11 10 10 10 10 10 10 10 10 10 9 9
9 9 9 9 10 10 9 9 9 9 10 11 11 11 11 11 11 11 11 11 11 11 11 11 11 11 11 11 11 11 11 10 10 10 10 10 10 10 10 10 10 10 10 10 9 9 9 9 9
9 9 9 9 9 9 9 9 9 10 10 11 11 11 11 11 11 11 11 11 11 11 11 11 11 11 11 10 10 10 10 10 10 10 10 10 10 9 9 9 9 9 9 9 9 9 9 9 8
8 9 9 9 8 8 9 8 9 9 9 9 10 10 11 11 11 11 11 11 11 11 11 11 10 10 10 10 10 10 10 10 10 10 9 9 9 9 9 9 9 9 9 9 9 8 8 8 8
8 9 9 9 8 8 8 8 8 9 9 9 9 10 11 11 11 11 11 11 11 11 10 10 10 10 10 10 10 10 10 9 9 9 9 9 9 9 9 9 9 8 8 8 8 8 8 8 8
9 8 8 7 7 8 8 8 8 8 9 9 9 10 11 11 11 11 11 11 11 10 10 10 10 10 9 9 9 9 9 9 9 9 9 9 8 8 8 8 8 8 8 8 8 8 7 7 7
8 7 7 8 7 8 8 8 8 9 9 10 9 10 11 11 11 11 10 10 10 10 10 10 10 9 9 9 9 9 9 8 8 8 8 8 8 8 8 8 8 8 8 7 7 7 7 7 7
8 8 7 8 8 7 8 8 9 9 9 10 10 10 10 10 10 10 10 10 10 10 10 10 9 9 9 9 9 9 8 8 8 8 8 8 8 8 7 7 7 7 7 7 7 7 7 6 6
8 7 8 7 7 7 7 8 8 9 9 9 9 10 10 10 10 10 10 10 10 10 10 10 9 9 9 9 8 8 8 8 8 8 8 7 7 7 7 7 7 7 7 6 6 6 6 6 6
8 8 6 7 8 8 8 8 8 9 9 8 8 9 10 10 10 10 10 10 10 10 9 9 9 9 8 8 8 8 8 7 7 7 7 7 7 7 7 6 6 6 6 6 6 6 6 5 5
8 8 7 6 6 7 8 9 9 9 9 8 8 9 10 10 10 10 10 10 9 9 9 9 8 8 8 8 8 8 7 7 7 7 7 6 6 6 6 6 6 6 5 5 5 5 5 5 5
8 8 7 7 7 6 6 8 9 8 8 8 9 9 10 10 10 10 10 9 9 9 9 8 8 8 8 8 7 7 7 7 7 6 6 6 6 6 6 5 5 5 5 5 5 5 5 4 4
Wind_Speed
14 12 3 4 5 3 3 4 3 1 0 1 1 4 5 4 3 4 3 8 10 10 12 14 14 14 14 14 13 13 12 12 12 11 11 11 11 11 11 11 11 11 11 10 10 10 10 10 9
10 4 5 5 4 2 5 4 3 3 3 1 3 4 4 3 2 5 4 8 11 11 12 13 14 14 14 14 14 13 12 12 11 11 11 11 11 11 11 10 10 10 10 10 10 10 9 9 9
6 2 4 4 3 6 5 4 5 3 2 1 3 4 3 3 3 4 5 9 10 10 11 12 14 14 14 14 13 13 12 11 11 11 11 11 11 11 10 10 10 10 10 10 9 9 8 8 8
3 4 4 3 4 5 4 4 3 1 2 3 4 3 2 1 2 5 9 10 9 8 11 12 13 14 13 13 13 13 12 11 11 11 10 10 11 10 10 10 10 9 9 9 9 8 8 8 8
4 4 3 1 4 4 4 3 2 1 1 1 3 3 1 4 4 9 10 10 10 8 10 12 13 13 13 13 13 12 12 11 11 11 10 10 10 10 10 10 10 9 9 9 9 8 8 8 9
3 3 3 4 5 4 3 3 2 0 0 1 3 3 1 0 5 7 8 8 9 9 9 11 13 13 13 12 12 12 12 11 11 11 10 10 10 10 10 9 9 9 9 9 8 8 8 8 9
4 3 4 4 4 4 4 3 2 1 1 3 4 4 2 1 3 6 7 7 7 9 9 8 11 13 12 12 12 12 12 11 11 10 10 10 9 9 9 8 8 8 8 8 8 8 8 8 9
4 3 2 3 3 5 3 1 2 2 3 1 3 5 5 4 3 6 7 6 6 6 7 7 8 10 11 11 12 12 11 11 10 10 10 9 9 8 8 8 8 8 8 8 8 8 8 9 10
3 2 3 4 4 5 2 1 3 2 1 1 1 2 4 7 6 7 6 5 4 5 5 7 7 8 10 10 10 10 10 10 9 9 9 8 7 7 7 7 7 8 8 8 8 8 9 10 10
3 3 5 3 3 4 3 3 3 1 2 1 3 3 4 7 8 8 8 7 6 5 5 6 7 7 8 8 8 8 8 8 8 8 8 8 7 7 6 7 7 7 8 8 8 8 9 9 9
4 5 4 4 4 3 3 3 3 3 4 5 5 5 5 5 6 7 7 7 7 6 5 5 6 7 7 6 7 6 6 7 8 8 8 8 8 7 7 7 7 7 7 8 8 8 8 8 8
2 4 4 5 4 3 4 3 3 5 8 6 8 10 9 7 8 8 7 6 6 6 5 5 6 6 6 7 6 6 6 6 6 7 8 7 6 5 5 5 5 6 6 6 6 6 7 7 8
3 4 5 6 5 5 5 5 5 7 6 3 6 9 9 8 6 4 5 5 5 6 6 6 6 6 6 6 6 6 6 6 6 7 7 7 5 4 4 4 5 5 5 5 4 5 5 6 6
4 4 6 6 6 4 4 5 3 7 3 4 7 9 9 8 7 5 4 5 5 6 6 6 6 6 6 5 5 6 7 7 6 6 6 7 6 5 4 4 4 4 4 4 4 4 4 4 4
2 3 6 5 4 3 2 5 5 5 2 4 7 8 7 7 7 7 7 6 6 6 6 6 7 7 6 5 6 6 7 7 6 5 6 7 7 6 5 3 2 3 4 5 5 5 5 3 4
1 1 3 5 3 3 3 7 6 3 3 4 5 6 6 6 7 6 6 5 5 6 6 6 7 7 6 5 6 6 7 7 6 5 5 6 7 7 5 3 2 3 4 4 3 2 3 3 3
2 2 5 5 3 2 3 7 6 4 4 6 6 6 6 5 5 5 5 6 6 6 6 6 6 7 6 5 5 6 6 6 5 5 5 5 6 6 6 3 3 4 4 3 2 2 2 2 2
3 3 4 6 4 2 4 7 8 4 5 7 6 6 5 6 6 5 5 6 6 5 6 6 7 6 6 5 4 3 4 4 4 4 4 5 5 5 5 4 3 4 3 2 2 2 2 2 1
4 4 6 6 3 2 6 8 9 6 4 5 5 6 6 7 5 5 5 5 5 5 5 6 7 6 6 4 4 4 2 2 2 3 4 5 5 5 4 3 3 3 3 2 2 2 3 2 2
4 5 5 5 3 3 5 8 8 6 5 6 7 8 8 5 4 5 5 5 6 6 6 6 6 7 7 5 4 3 3 2 2 2 3 4 4 4 3 3 2 3 3 3 2 2 2 1 2
4 4 4 4 4 2 2 6 5 5 3 3 5 6 6 8 8 7 6 5 6 6 7 7 7 7 7 6 4 4 4 3 2 2 1 2 4 4 4 4 3 3 3 2 1 2 3 1 1
4 5 4 3 1 3 1 3 6 4 4 5 6 5 6 6 6 7 7 7 7 7 6 6 7 7 6 6 6 6 5 4 3 2 2 2 3 3 3 4 4 3 2 2 1 1 2 3 1
5 4 3 2 2 2 1 2 7 3 5 7 7 7 7 7 7 8 8 8 7 5 5 6 6 6 6 6 7 6 4 3 2 2 3 2 1 2 3 4 4 3 2 2 1 1 2 2 2
3 3 3 3 3 2 4 4 6 4 6 5 6 7 7 7 7 7 6 6 5 4 5 6 7 6 6 6 6 6 6 5 4 3 3 2 1 1 2 3 3 3 2 2 2 2 2 2 2
3 4 4 4 3 5 2 3 8 7 6 7 8 8 8 7 7 8 7 7 6 7 7 6 7 6 6 6 6 6 6 6 5 4 4 3 2 1 2 2 2 2 2 3 2 2 2 2 2
1 4 4 2 4 5 3 5 7 5 4 4 4 5 5 6 6 7 8 8 8 8 7 7 7 6 6 6 5 4 5 4 3 4 4 3 3 3 2 3 3 2 2 2 2 1 2 2 2
1 2 4 4 2 3 6 7 7 3 3 2 2 3 5 6 6 7 7 7 7 8 8 8 8 6 6 6 5 4 4 4 4 3 3 2 2 2 2 2 2 2 2 2 2 2 2 2 2
2 3 4 2 1 4 7 5 5 6 6 5 4 5 5 5 5 6 6 6 6 7 6 6 7 7 6 6 5 5 4 4 4 3 3 3 2 2 2 2 2 2 2 2 2 2 2 2 2
2 1 2 2 3 3 4 7 5 6 6 6 7 6 6 5 6 6 5 5 5 5 6 6 6 5 5 5 5 5 4 4 3 3 3 3 2 2 2 2 2 2 2 2 2 3 3 3 3
4 4 5 3 4 3 3 8 6 5 4 4 5 5 5 5 5 5 5 5 5 6 6 6 6 5 5 5 5 5 4 4 4 3 3 3 3 3 3 2 2 3 3 3 3 4 4 4 4
Wind_Direction
332 333 22 52 59 60 232 249 243 263 307 300 24 95 114 122 157 170 138 135 130 135 138 140 137 134 131 128 124 120 116 113 111 107 106 104 101 98 93 88 86 83 79 75 71 68 66 64 62
333 347 47 63 106 182 253 238 227 239 211 183 54 73 76 71 77 110 125 138 132 134 136 140 137 135 133 131 128 124 120 117 114 111 109 106 102 98 93 89 85 82 80 77 73 69 65 64 59
335 36 79 87 147 193 220 228 215 250 275 65 48 45 83 122 115 136 150 139 129 130 134 139 140 136 134 132 131 127 124 120 116 114 110 107 104 99 94 90 86 83 79 75 72 68 64 61 57
36 44 60 96 214 225 219 242 232 230 341 39 88 60 32 8 151 141 135 131 126 127 132 138 141 136 134 134 133 130 127 123 119 116 113 110 106 102 96 91 88 84 79 75 71 67 63 59 55
60 80 86 212 241 251 252 260 246 210 232 25 84 97 34 344 90 118 129 132 131 132 132 139 142 139 135 135 134 133 130 126 123 121 116 112 108 102 96 91 88 86 82 77 73 69 64 58 52
56 78 128 218 244 261 266 271 296 323 278 41 83 103 151 83 110 123 127 131 136 138 135 139 143 141 137 135 136 136 133 130 126 124 119 112 108 102 98 94 89 85 82 78 74 69 63 58 52
114 120 179 205 232 254 259 266 218 229 231 213 147 123 170 204 134 125 123 126 130 137 134 129 139 143 140 137 138 138 138 134 129 125 121 117 112 106 103 98 92 85 81 76 72 68 62 57 54
135 125 188 217 213 240 262 299 265 212 235 224 131 149 191 205 150 116 112 115 125 136 136 133 134 141 140 139 140 141 140 137 131 125 121 116 111 106 102 97 91 85 79 74 69 66 63 57 54
99 100 208 215 206 241 264 305 313 309 114 7 355 191 208 151 132 120 120 122 131 142 145 144 143 147 150 148 149 144 142 136 126 119 119 114 105 101 96 90 88 84 77 72 67 65 60 55 53
113 179 223 226 216 231 259 239 247 349 335 322 349 2 116 142 144 146 152 158 159 162 167 157 155 156 157 154 146 141 137 130 122 117 116 109 103 97 94 89 85 80 73 69 64 62 57 53 51
166 201 230 261 259 253 263 250 231 173 238 224 213 189 163 165 164 165 168 170 171 171 171 161 161 166 160 148 147 142 132 125 120 118 117 110 98 90 83 79 73 69 67 58 53 53 49 52 54
206 241 236 259 270 267 249 230 232 223 238 236 200 176 168 177 183 181 179 181 174 170 171 165 157 160 158 149 148 146 137 129 121 120 120 111 96 86 83 78 74 68 58 51 48 48 50 53 58
230 257 263 263 272 264 256 239 231 250 256 224 173 171 179 188 191 188 180 175 170 170 172 172 159 154 155 144 147 141 140 136 129 121 122 121 111 106 93 81 76 70 64 60 50 51 54 54 56
241 253 270 270 266 258 248 263 224 251 239 186 175 182 190 192 186 173 180 181 185 182 175 171 162 155 155 149 147 144 143 139 126 119 123 124 120 115 105 88 72 68 69 71 69 67 65 61 61
286 298 297 264 242 243 237 273 233 246 202 196 195 192 189 192 183 182 188 185 188 184 172 169 164 155 152 150 149 144 142 138 128 125 122 122 121 117 112 100 82 68 77 75 67 61 62 60 56
342 15 290 274 219 226 175 259 257 242 191 216 213 197 189 194 188 185 185 178 177 172 170 170 161 152 147 147 144 140 138 134 133 132 122 120 122 123 113 107 98 85 78 71 75 72 65 54 49
17 280 260 279 246 204 200 256 268 233 207 218 218 204 193 194 193 185 180 173 172 171 170 168 151 152 149 140 137 136 134 130 133 131 128 119 118 124 116 109 95 96 79 68 82 75 80 64 39
262 261 258 254 261 215 240 263 276 252 219 222 214 207 199 199 204 187 177 168 163 161 162 165 155 153 143 129 117 109 109 117 126 136 138 126 118 119 121 115 97 94 88 70 78 84 69 80 46
240 248 260 256 260 227 244 267 276 270 236 230 220 207 204 206 197 173 169 158 149 149 152 165 162 158 147 139 142 136 144 131 124 148 146 136 129 123 120 122 108 98 99 91 91 98 74 43 34
257 272 271 281 267 229 254 272 275 259 234 220 211 209 206 195 181 168 160 156 157 163 163 167 169 166 161 154 148 138 137 135 136 141 141 145 141 139 130 119 119 111 104 85 76 94 96 42 41
271 247 259 268 310 284 277 294 278 271 252 238 222 209 203 196 194 183 174 170 165 172 175 172 168 168 163 152 131 113 97 87 103 128 134 160 156 151 140 130 121 116 120 126 118 123 130 133 18
264 250 257 262 347 284 186 280 283 261 263 247 235 219 214 206 196 187 180 179 182 187 178 165 166 163 159 151 152 150 151 159 179 170 160 153 155 156 154 144 138 132 127 139 154 130 142 146 156
244 271 266 241 190 316 303 200 285 276 253 249 238 226 219 209 197 193 189 186 183 176 170 164 159 158 153 154 158 151 150 157 146 135 143 155 147 162 164 155 145 141 143 155 153 132 141 156 166
263 343 18 46 74 293 239 185 277 243 232 243 233 226 218 206 195 192 188 172 163 157 159 158 155 158 157 156 157 158 161 159 151 152 162 173 166 167 170 152 150 156 160 169 176 173 168 174 171
47 63 26 2 358 260 257 202 251 247 234 226 225 222 216 207 194 185 181 175 169 168 169 167 162 165 163 158 163 167 168 167 172 174 178 180 185 196 203 165 162 165 179 183 174 175 193 195 187
238 133 146 216 252 284 305 243 256 259 260 250 233 214 199 200 197 188 186 183 180 177 173 170 170 169 163 163 169 168 164 165 177 179 173 181 194 206 195 181 179 179 177 183 176 187 208 201 206
160 179 176 151 251 274 279 283 301 259 287 287 213 190 197 200 196 190 185 181 178 177 177 175 170 165 166 168 164 163 163 165 176 175 170 182 197 198 182 177 180 188 181 185 178 205 225 216 218
191 156 96 119 203 283 295 281 261 265 258 254 233 218 217 208 199 188 183 182 178 176 171 165 166 168 165 164 167 169 171 174 173 165 176 186 195 191 180 187 200 214 203 193 189 212 228 227 240
174 170 147 157 178 190 283 279 238 249 243 235 238 228 216 211 204 193 190 184 173 163 162 164 165 161 161 164 162 158 165 165 164 176 190 192 194 193 196 201 203 213 220 209 204 224 228 233 248
199 199 162 181 246 208 224 270 278 268 249 220 231 231 217 208 198 189 183 174 170 171 172 172 170 168 171 165 160 165 166 163 171 189 198 193 198 205 204 202 208 220 226 220 215 228 232 232 242
Height
1523 1524 1524 1526 1529 1538 1537 1530 1523 1520 1519 1517 1516 1515 1516 1519 1522 1527 1524 1523 1525 1527 1529 1531 1533 1534 1535 1536 1536 1537 1537 1538 1538 1539 1539 1539 1539 1539 1539 1539 1538 1538 1538 1538 1537 1537 1537 1537 1537
1523 1524 1525 1525 1534 1542 1537 1526 1522 1519 1517 1517 1516 1516 1516 1519 1519 1520 1521 1523 1525 1527 1529 1531 1532 1533 1534 1535 1536 1537 1537 1538 1538 1538 1539 1539 1539 1539 1539 1539 1538 1538 1538 1537 1537 1537 1537 1537 1537
1522 1523 1525 1528 1535 1537 1530 1522 1520 1517 1516 1516 1516 1517 1518 1519 1519 1520 1521 1522 1525 1527 1529 1530 1532 1533 1534 1535 1536 1536 1537 1537 1538 1538 1539 1539 1539 1539 1539 1538 1538 1538 1538 1537 1537 1537 1537 1536 1536
1523 1524 1525 1531 1531 1528 1523 1520 1518 1516 1516 1516 1516 1518 1519 1520 1520 1520 1521 1523 1524 1526 1528 1530 1532 1533 1533 1534 1535 1536 1537 1537 1538 1538 1538 1539 1539 1539 1539 1538 1538 1538 1538 1537 1537 1537 1537 1536 1536
1522 1523 1529 1533 1529 1524 1520 1518 1517 1516 1516 1516 1516 1517 1519 1520 1520 1520 1521 1522 1524 1526 1527 1529 1531 1532 1533 1534 1535 1536 1536 1537 1537 1538 1538 1539 1539 1539 1539 1539 1538 1538 1538 1537 1537 1537 1537 1537 1536
1523 1523 1533 1534 1528 1522 1519 1518 1517 1517 1516 1516 1515 1517 1519 1520 1520 1520 1521 1522 1524 1525 1527 1528 1530 1531 1532 1533 1534 1535 1536 1536 1537 1538 1538 1538 1538 1539 1539 1539 1538 1538 1538 1537 1537 1537 1537 1537 1536
1523 1526 1530 1528 1527 1523 1519 1517 1517 1516 1515 1515 1514 1516 1518 1519 1520 1520 1521 1522 1523 1525 1526 1527 1529 1530 1532 1533 1534 1534 1535 1536 1537 1537 1538 1538 1538 1538 1538 1538 1538 1538 1538 1537 1537 1537 1537 1537 1536
1522 1525 1527 1527 1525 1522 1518 1517 1516 1515 1515 1515 1514 1514 1515 1517 1518 1519 1520 1521 1523 1524 1525 1526 1528 1529 1530 1532 1533 1534 1535 1536 1536 1537 1537 1538 1538 1538 1538 1538 1538 1538 1538 1537 1537 1537 1537 1537 1536
1522 1528 1528 1524 1522 1520 1516 1516 1515 1514 1513 1513 1513 1512 1512 1515 1516 1518 1519 1520 1521 1522 1523 1525 1526 1528 1529 1531 1532 1533 1534 1535 1536 1536 1537 1537 1537 1537 1538 1538 1538 1538 1538 1537 1537 1537 1537 1537 1536
1521 1528 1523 1518 1517 1516 1514 1514 1514 1513 1512 1511 1510 1510 1511 1512 1513 1515 1516 1517 1518 1520 1521 1523 1525 1526 1528 1529 1531 1532 1533 1534 1535 1535 1536 1536 1537 1537 1537 1537 1538 1538 1537 1537 1537 1537 1537 1537 1536
1520 1522 1518 1516 1514 1514 1513 1512 1512 1511 1511 1508 1507 1507 1508 1509 1511 1512 1514 1515 1517 1518 1520 1521 1523 1525 1527 1528 1529 1531 1532 1533 1534 1534 1535 1536 1536 1536 1537 1537 1537 1537 1537 1537 1537 1537 1537 1536 1536
1519 1517 1515 1514 1513 1512 1511 1510 1510 1508 1507 1506 1506 1505 1505 1507 1508 1509 1511 1513 1515 1517 1518 1520 1522 1523 1525 1527 1528 1529 1531 1532 1532 1533 1534 1535 1535 1536 1536 1536 1536 1537 1537 1537 1537 1536 1536 1536 1536
1517 1515 1514 1512 1512 1511 1509 1508 1507 1505 1504 1503 1503 1504 1504 1505 1506 1508 1510 1512 1513 1514 1516 1518 1520 1522 1524 1525 1526 1528 1529 1530 1531 1532 1533 1534 1534 1535 1535 1535 1536 1536 1536 1536 1536 1536 1536 1536 1535
1515 1514 1512 1511 1510 1509 1508 1506 1505 1502 1502 1501 1501 1501 1502 1503 1504 1505 1507 1508 1510 1512 1514 1516 1518 1520 1522 1523 1524 1526 1528 1529 1530 1531 1532 1533 1533 1534 1534 1534 1535 1535 1535 1535 1535 1535 1535 1535 1535
1514 1514 1512 1509 1508 1507 1507 1506 1503 1500 1500 1499 1499 1500 1501 1502 1502 1503 1505 1506 1508 1510 1512 1514 1517 1518 1520 1521 1522 1524 1526 1527 1528 1529 1530 1531 1532 1533 1533 1534 1534 1534 1535 1535 1535 1535 1535 1534 1534
1515 1516 1516 1508 1506 1506 1510 1508 1500 1499 1498 1498 1498 1498 1499 1500 1501 1502 1504 1505 1507 1508 1511 1513 1515 1516 1518 1519 1520 1522 1524 1525 1526 1528 1529 1530 1531 1531 1532 1533 1533 1533 1534 1534 1534 1534 1534 1533 1533
1518 1521 1517 1511 1505 1505 1507 1505 1498 1497 1497 1496 1496 1496 1497 1498 1499 1500 1502 1503 1505 1507 1509 1511 1512 1514 1516 1517 1519 1520 1522 1524 1525 1526 1528 1528 1529 1530 1530 1531 1532 1532 1532 1532 1532 1532 1532 1532 1532
1521 1519 1515 1512 1505 1505 1505 1502 1497 1495 1495 1494 1494 1494 1495 1496 1496 1498 1500 1501 1503 1505 1507 1509 1511 1513 1514 1515 1517 1518 1520 1521 1523 1525 1526 1527 1528 1529 1529 1529 1530 1530 1531 1531 1531 1531 1531 1531 1530
1516 1515 1514 1509 1504 1505 1504 1501 1496 1493 1493 1492 1492 1492 1493 1494 1495 1497 1498 1499 1501 1503 1504 1507 1509 1511 1512 1513 1515 1516 1518 1520 1521 1523 1524 1525 1527 1527 1528 1528 1528 1529 1529 1529 1529 1529 1529 1529 1529
1513 1514 1512 1507 1503 1504 1503 1500 1494 1491 1490 1490 1490 1490 1491 1492 1493 1495 1496 1497 1498 1500 1502 1504 1506 1509 1511 1512 1514 1515 1516 1518 1520 1521 1522 1524 1525 1526 1526 1526 1526 1527 1527 1528 1528 1528 1527 1527 1527
1511 1512 1510 1509 1504 1502 1503 1501 1495 1490 1489 1488 1488 1488 1489 1489 1490 1492 1494 1495 1496 1498 1500 1501 1504 1507 1509 1511 1512 1513 1515 1516 1518 1519 1521 1522 1523 1524 1525 1524 1524 1525 1525 1526 1526 1526 1526 1526 1526
1513 1507 1507 1506 1509 1511 1507 1511 1496 1491 1489 1487 1486 1486 1486 1487 1488 1490 1491 1493 1494 1496 1498 1500 1503 1506 1507 1509 1510 1511 1512 1514 1516 1518 1519 1520 1521 1522 1522 1522 1523 1523 1523 1523 1524 1524 1524 1524 1523
1509 1505 1506 1506 1507 1510 1508 1511 1500 1491 1489 1485 1483 1483 1484 1485 1486 1488 1489 1491 1493 1494 1496 1498 1501 1503 1505 1507 1509 1510 1511 1513 1514 1515 1517 1518 1519 1520 1520 1520 1520 1520 1521 1521 1521 1521 1521 1521 1521
1506 1506 1506 1510 1512 1513 1507 1511 1502 1492 1485 1481 1480 1480 1481 1483 1484 1486 1487 1489 1491 1493 1495 1497 1499 1501 1504 1506 1507 1508 1510 1511 1512 1513 1515 1516 1517 1517 1518 1518 1518 1518 1518 1519 1519 1519 1518 1518 1518
1508 1513 1519 1517 1521 1514 1504 1506 1498 1483 1479 1478 1477 1477 1478 1479 1481 1482 1484 1486 1488 1491 1493 1496 1497 1499 1502 1504 1505 1506 1508 1509 1510 1512 1513 1514 1514 1514 1515 1515 1515 1515 1515 1516 1516 1516 1516 1516 1515
1509 1511 1520 1520 1520 1515 1505 1503 1488 1478 1476 1475 1474 1475 1476 1477 1478 1479 1481 1484 1486 1489 1492 1494 1496 1497 1499 1501 1503 1505 1506 1507 1509 1510 1511 1511 1511 1512 1512 1512 1512 1512 1512 1513 1512 1512 1512 1512 1512
1508 1512 1512 1518 1517 1517 1508 1497 1484 1476 1475 1474 1473 1473 1474 1475 1476 1478 1480 1482 1485 1487 1489 1491 1493 1495 1497 1499 1501 1502 1503 1505 1506 1507 1508 1508 1509 1509 1509 1509 1509 1509 1509 1509 1509 1509 1509 1509 1509
1507 1509 1516 1517 1516 1514 1506 1499 1491 1478 1475 1474 1473 1472 1473 1474 1475 1477 1479 1481 1483 1485 1487 1489 1491 1493 1495 1497 1498 1500 1501 1502 1503 1504 1505 1506 1506 1506 1506 1506 1506 1506 1506 1506 1506 1505 1505 1505 1505
1508 1509 1511 1516 1517 1514 1511 1498 1479 1476 1473 1472 1471 1471 1472 1473 1474 1476 1478 1480 1482 1484 1485 1487 1489 1491 1492 1494 1496 1497 1498 1500 1501 1501 1502 1502 1503 1503 1503 1503 1503 1503 1502 1502 1502 1502 1501 1501 1501
1504 1505 1509 1513 1512 1514 1513 1499 1474 1473 1471 1470 1471 1471 1471 1472 1473 1475 1477 1478 1480 1482 1484 1485 1487 1489 1490 1492 1493 1494 1496 1497 1497 1498 1498 1499 1499 1499 1499 1499 1499 1499 1499 1498 1498 1498 1497 1497 1497